Temp
16 16 16 16 16 16 16 16 16 16 16 15 15 15 14 14 13 13 13 13 12 12 12 12 12 12 11 11 11 10 10 10 10 10 10 10 10 10 10 10 10 10 10
16 16 16 16 16 16 16 16 16 16 16 15 15 15 14 14 13 13 13 12 12 11 12 12 11 11 11 11 10 10 10 10 10 10 9 9 9 10 10 9 9 9 9
16 16 16 16 16 16 16 16 16 16 15 15 15 14 14 13 13 13 13 13 12 11 11 11 11 11 10 10 10 10 9 9 9 9 9 9 9 9 9 9 9 9 9
16 16 16 16 16 16 16 16 15 15 15 15 14 14 13 13 13 13 13 13 12 12 11 10 9 9 9 9 10 9 9 9 9 9 9 9 9 9 9 8 8 8 9
16 16 16 16 15 15 15 15 15 15 14 14 13 13 13 13 12 12 12 12 12 12 12 11 11 9 8 8 8 9 9 9 8 8 8 8 8 8 8 8 8 8 8
16 16 15 15 15 15 15 15 15 14 14 14 13 12 12 12 12 12 12 12 12 11 11 11 10 11 11 11 8 8 8 8 8 8 8 8 8 8 8 8 8 8 8
16 15 15 15 15 15 15 15 14 14 13 13 13 11 11 12 12 12 12 12 12 11 11 10 10 10 10 10 10 9 7 7 8 8 8 8 7 7 7 7 7 7 7
16 15 15 15 15 14 14 14 14 13 13 13 13 12 9 11 11 11 12 12 11 11 10 10 9 9 9 9 9 10 10 7 7 7 7 7 7 7 7 7 7 7 7
16 16 15 15 15 15 15 14 14 14 13 13 13 13 8 9 10 11 11 11 11 10 10 9 9 9 9 8 9 9 9 7 6 7 7 7 6 6 6 6 6 7 6
16 16 16 15 15 15 15 15 14 14 14 13 13 13 12 12 8 8 10 10 10 10 9 9 9 8 8 8 8 8 8 7 5 6 6 6 6 5 5 6 6 6 6
16 16 16 15 15 15 14 14 14 14 14 14 13 13 12 12 11 9 7 8 9 9 9 8 8 8 7 7 7 7 7 6 4 5 5 5 5 4 5 5 5 5 6
16 16 16 16 15 15 14 14 14 14 14 14 14 13 13 13 11 11 7 7 8 8 8 7 7 7 7 7 7 6 6 6 4 4 4 4 3 3 4 4 4 4 5
16 16 16 16 15 15 15 14 14 14 14 13 13 13 13 13 14 13 11 8 7 7 7 7 7 7 6 6 6 6 5 5 4 3 3 3 2 2 3 3 3 4 4
16 16 16 16 16 15 15 14 14 14 13 13 13 13 13 13 13 13 13 11 5 6 6 7 6 6 5 5 5 5 5 5 4 2 2 1 1 1 2 2 2 3 3
17 17 16 16 16 15 15 14 14 14 14 13 13 13 13 13 13 13 12 13 12 5 3 6 6 5 5 5 4 5 5 4 4 1 1 0 0 1 1 1 1 2 2
16 16 16 16 16 15 15 14 14 14 13 13 13 13 13 13 12 12 12 12 12 11 6 6 5 4 4 4 4 4 4 4 3 1 0 -0 -0 -0 0 0 0 1 2
16 16 16 16 16 15 15 14 14 14 13 13 13 13 13 12 12 12 12 11 11 10 8 4 5 4 4 4 4 4 3 3 2 2 -1 -1 -1 -1 -1 -0 -0 1 1
16 16 16 16 16 15 15 14 14 14 13 13 13 13 13 12 12 11 11 10 10 10 9 5 4 4 4 4 4 3 3 2 2 1 1 0 -1 -1 -1 -1 -1 0 1
16 16 16 16 16 15 15 15 14 14 14 14 14 13 13 12 11 11 10 10 9 8 8 7 4 3 3 3 3 3 2 3 1 1 0 0 0 -0 -2 -1 -1 -1 -0
16 16 16 16 16 16 15 15 15 14 14 14 14 13 13 12 12 11 10 9 8 7 6 6 4 3 2 2 2 1 3 2 2 0 -0 -0 -1 -1 -1 -1 -1 -2 -1
16 17 17 16 15 15 15 15 14 14 14 14 13 12 12 12 12 11 10 9 7 7 5 4 2 1 1 1 0 1 0 0 1 -1 0 -1 -0 -1 -1 -1 -2 -2 -1
15 14 14 14 14 14 15 15 15 14 14 13 13 12 12 11 10 9 9 8 8 6 4 3 2 1 1 0 -0 0 -1 -1 -2 -1 -2 -1 -1 -1 -2 -2 -2 -2 -2
13 13 13 13 13 14 15 15 15 14 13 12 12 11 10 10 8 8 7 6 5 4 5 4 3 1 0 1 0 -1 -2 -3 -3 -1 -3 -2 -2 -2 -2 -2 -2 -3 -2
11 12 12 12 12 12 13 14 14 13 11 11 11 10 9 8 6 5 5 4 3 3 2 3 3 1 -0 0 0 -1 -2 -3 -3 -2 -3 -4 -3 -3 -2 -2 -2 -3 -3
9 10 10 11 12 12 12 12 12 10 9 10 10 8 7 6 5 3 2 1 1 1 0 1 0 -1 -1 -2 -2 -2 -2 -3 -4 -4 -4 -4 -3 -4 -3 -3 -3 -3 -3
5 6 7 8 9 10 11 11 11 9 7 7 7 6 6 5 2 2 1 0 -1 -1 -0 -1 -3 -3 -3 -3 -3 -2 -3 -3 -4 -5 -4 -4 -4 -4 -4 -3 -3 -3 -3
Height
864 866 867 869 871 871 872 873 874 876 877 878 879 880 881 882 883 884 883 884 885 886 886 884 884 883 882 882 882 880 879 877 875 873 871 869 867 865 862 860 858 855 852
866 868 869 870 872 873 874 875 877 878 879 880 881 882 883 884 885 886 886 886 887 888 887 886 886 885 884 885 884 882 880 878 876 874 872 870 868 866 864 861 858 855 851
867 869 870 871 873 874 875 877 878 879 881 882 882 884 885 886 888 888 888 889 888 888 888 888 888 887 887 887 886 883 882 880 877 876 873 871 869 867 864 861 858 854 851
868 869 871 872 873 875 876 878 879 880 882 883 884 886 887 889 890 890 890 890 890 889 889 889 889 888 889 888 887 885 883 880 878 876 874 872 870 867 864 861 858 854 850
868 870 871 872 874 875 877 878 880 881 883 884 886 888 890 891 891 891 891 891 891 891 891 890 889 889 889 888 887 885 883 881 879 877 875 872 870 867 864 861 857 854 850
869 870 871 872 874 875 877 879 880 882 884 885 887 890 891 892 892 892 892 892 892 892 892 891 891 891 890 888 886 885 883 882 880 877 875 873 870 867 864 860 856 853 849
869 870 871 872 874 876 878 879 881 883 885 887 888 891 893 893 892 892 892 892 892 892 892 892 892 892 890 888 886 884 883 881 879 878 875 873 870 867 864 860 856 852 848
868 869 871 872 874 876 877 879 881 882 884 886 887 890 893 894 892 892 892 892 892 892 892 893 892 891 890 888 886 884 881 880 879 877 875 872 869 866 863 860 856 852 847
867 868 870 872 873 875 876 877 879 880 881 883 884 884 891 890 889 889 890 891 892 892 892 892 891 890 889 887 885 883 881 879 877 876 873 871 868 865 862 859 855 851 846
865 867 869 871 872 874 875 876 878 879 880 880 883 882 883 883 887 890 889 890 890 891 890 890 890 888 887 886 884 882 880 878 877 875 872 870 867 864 861 858 854 850 845
864 865 867 869 870 872 873 874 875 876 878 879 880 880 882 882 883 884 887 886 887 888 888 889 888 888 887 885 883 882 879 877 876 873 871 868 866 863 860 857 853 849 845
861 863 865 867 869 870 871 872 874 875 875 876 877 878 878 879 880 881 884 885 886 887 887 888 887 887 886 884 882 880 878 876 874 872 870 867 864 860 858 855 852 848 845
857 859 862 863 866 868 869 870 871 872 873 873 874 874 875 876 876 877 878 880 882 883 884 884 884 884 883 883 881 879 877 875 872 870 868 866 863 860 857 854 851 848 845
852 855 858 860 863 865 866 868 868 869 869 870 871 871 872 873 873 874 874 876 881 881 880 880 881 881 882 881 880 878 876 874 871 869 867 864 861 859 856 853 851 848 845
849 852 854 856 858 861 862 864 864 865 866 866 867 868 868 869 869 870 871 871 871 878 877 876 878 878 879 879 878 876 874 871 869 868 866 863 860 858 856 852 850 847 844
844 847 849 851 853 855 858 859 860 861 861 862 863 864 864 865 866 866 867 868 868 868 871 871 874 875 876 876 876 874 872 870 867 865 864 862 861 857 854 852 849 846 843
838 840 843 845 847 849 851 853 855 856 856 857 858 859 860 861 861 862 863 864 864 865 866 870 871 873 873 873 873 872 870 869 866 864 863 861 859 856 853 851 849 846 843
831 833 836 838 840 842 844 846 848 850 851 851 852 853 854 856 857 858 859 860 861 862 863 864 867 869 870 870 869 869 868 865 864 863 862 860 857 854 853 851 848 846 843
823 826 828 829 831 833 836 838 840 842 844 845 845 846 847 850 851 852 854 856 857 858 859 861 864 866 867 867 867 867 865 862 861 860 858 857 855 852 851 849 846 845 843
813 816 818 820 822 824 827 829 832 834 836 837 838 839 840 841 843 845 848 850 852 854 855 857 858 861 863 864 864 863 861 861 859 858 857 854 853 851 849 846 844 842 841
803 805 808 810 812 814 816 820 822 824 826 828 829 830 833 835 837 839 841 843 846 848 851 854 856 858 858 861 861 860 860 859 857 856 854 853 851 850 848 845 842 842 840
796 798 799 801 802 803 806 809 812 814 816 818 819 821 824 827 830 833 835 839 842 842 845 847 850 852 853 858 859 857 859 859 857 854 852 850 850 850 845 843 842 841 839
790 790 791 792 792 793 796 799 802 804 806 807 809 811 815 817 822 825 828 832 835 839 839 839 844 849 852 852 856 856 856 857 856 854 851 848 849 846 843 841 841 841 839
784 785 785 785 785 786 788 789 791 793 795 797 800 801 805 808 813 820 821 821 825 830 836 838 840 842 846 850 850 852 853 853 853 851 849 848 846 842 839 839 841 840 837
779 779 780 779 778 778 780 780 783 785 785 787 789 793 796 800 804 810 813 823 826 829 833 833 837 841 844 846 849 848 850 850 849 849 849 848 844 840 838 838 839 839 836
776 775 774 774 773 773 773 774 776 777 778 779 781 784 787 792 797 799 808 812 820 826 827 830 836 840 843 842 846 847 848 847 846 846 847 847 842 842 839 837 837 837 836
Wind_Speed
18 16 15 13 10 10 11 12 12 12 14 14 13 12 13 14 14 15 15 15 16 15 14 15 16 16 17 16 16 16 16 16 17 18 18 19 19 20 20 21 21 22 23
13 12 11 10 10 11 11 11 12 13 15 14 13 12 13 14 14 13 13 14 15 15 14 15 15 16 16 15 15 15 15 16 17 17 18 18 19 20 20 21 22 23 24
11 11 11 11 11 11 12 12 13 14 15 14 13 12 13 14 13 13 12 11 13 14 15 14 14 15 15 14 14 15 15 16 16 17 18 18 19 19 20 21 23 24 25
13 13 12 12 11 11 11 11 13 14 13 13 14 13 13 13 13 11 10 10 9 10 11 13 13 13 13 13 15 15 14 15 16 17 18 18 19 20 21 22 23 24 25
14 13 12 10 10 10 11 11 12 13 14 14 14 13 13 12 10 8 8 8 7 7 7 9 9 10 11 13 14 15 14 15 16 18 18 18 19 20 22 23 23 25 26
12 11 11 10 11 12 12 12 12 13 13 14 16 14 12 10 8 7 7 6 5 5 5 5 6 7 8 12 13 14 14 14 16 17 17 18 19 20 22 23 24 25 26
14 12 12 12 12 12 12 12 14 15 16 18 19 12 8 7 7 7 6 5 5 4 4 3 4 6 8 11 13 14 13 15 15 16 16 17 19 20 22 23 25 25 27
16 16 14 12 13 13 14 15 17 18 18 21 9 7 2 2 7 8 8 7 6 5 4 3 2 4 8 11 14 15 14 13 14 14 15 17 18 20 21 23 24 26 27
18 17 17 12 12 14 15 16 17 19 20 21 17 6 2 4 4 9 12 10 9 7 6 4 1 2 5 10 13 15 15 12 13 14 15 16 17 18 20 22 23 25 26
21 18 18 16 13 15 16 16 16 18 20 24 17 14 4 4 3 1 8 11 12 11 9 7 5 3 4 8 12 13 14 12 13 13 15 15 17 18 19 20 23 24 24
24 22 20 19 17 17 17 17 19 19 21 21 22 14 14 9 6 3 2 7 12 13 12 11 8 5 4 8 11 13 13 11 12 13 14 15 16 17 19 20 22 21 24
27 25 22 19 19 19 19 18 18 19 21 22 22 24 16 8 10 6 2 3 7 9 12 12 9 6 5 7 10 11 12 11 12 13 13 13 15 15 17 19 20 21 20
29 29 25 23 23 20 20 19 19 20 20 22 22 23 24 21 13 16 8 5 4 7 9 13 13 10 7 6 9 10 10 11 12 11 12 11 14 14 17 17 18 19 21
33 30 29 27 26 23 22 21 21 20 20 21 22 22 22 22 21 17 13 9 1 4 9 7 15 11 7 6 7 8 10 12 12 10 10 11 13 14 16 16 17 19 21
37 34 31 30 30 28 25 24 23 22 21 20 21 21 21 20 20 20 18 16 9 4 5 13 9 12 7 5 7 8 9 11 11 8 10 11 12 13 15 16 16 17 19
37 37 35 33 32 32 29 27 26 24 23 22 22 22 22 21 20 19 18 17 16 10 3 11 13 11 7 5 5 7 10 11 10 5 10 11 11 13 14 15 14 16 18
37 37 37 37 36 35 33 32 30 28 26 25 24 23 22 21 20 19 18 17 16 13 6 9 11 12 8 5 5 7 9 10 8 6 10 8 11 14 13 12 13 15 19
39 37 37 38 39 40 38 36 35 33 31 30 28 27 26 24 23 21 19 18 16 15 11 11 13 12 9 6 5 6 7 10 7 5 9 8 10 13 11 11 13 14 19
40 38 38 39 41 41 41 41 40 38 36 35 34 33 32 29 27 25 23 20 18 16 13 10 10 12 9 7 6 6 7 9 8 4 8 6 10 12 9 9 12 13 17
42 41 41 41 42 42 43 44 44 43 41 40 40 38 36 34 33 30 27 25 21 18 15 14 12 11 8 8 7 8 8 9 8 4 9 5 9 11 6 5 10 13 15
42 40 42 43 44 44 45 45 47 47 47 46 44 43 40 38 36 33 31 29 25 22 19 16 11 8 8 7 7 6 8 11 9 6 13 6 8 11 7 5 10 14 13
40 40 40 42 44 46 47 47 48 48 49 49 49 48 42 40 37 34 32 27 27 27 24 21 16 13 11 11 9 6 6 6 5 5 15 12 8 12 14 6 8 12 13
33 36 38 40 42 45 47 49 50 50 48 49 49 49 44 42 38 35 31 27 26 24 23 23 19 13 13 13 11 7 6 5 6 10 14 7 9 15 15 6 3 12 12
15 19 31 37 40 41 45 48 50 50 47 47 46 46 44 41 38 35 34 32 31 25 21 18 15 15 14 14 11 7 5 6 9 5 5 5 11 18 13 2 3 14 12
20 22 23 24 32 37 40 44 46 45 43 46 44 41 38 37 38 36 36 30 27 22 16 16 14 11 12 11 10 8 7 5 3 3 4 5 8 18 11 2 2 14 11
19 20 23 26 28 29 33 35 39 38 37 38 39 35 35 37 36 40 37 38 32 23 20 16 13 13 12 12 10 9 10 6 4 3 4 7 7 12 7 5 10 18 10
Wind_Direction
143 141 142 144 145 136 143 138 137 135 142 139 129 124 129 131 131 129 123 111 103 96 91 85 78 72 66 60 55 51 47 42 37 32 28 25 22 19 16 11 6 2 359
153 153 154 154 145 150 142 138 141 140 143 144 135 127 130 134 135 131 121 115 112 100 91 85 79 72 65 57 51 48 44 39 35 29 25 23 19 16 11 6 3 360 356
172 167 161 156 154 146 151 147 139 141 144 146 139 135 135 137 136 129 120 119 118 110 94 87 81 72 65 56 48 44 40 36 32 26 23 20 16 11 7 4 0 357 355
180 174 169 165 160 159 166 163 157 150 148 153 148 142 141 141 139 132 120 111 112 108 104 97 85 74 63 52 45 40 37 32 27 21 20 17 12 7 5 1 358 355 353
177 180 182 187 185 181 178 173 164 163 158 152 153 149 149 151 149 142 127 120 113 106 96 94 85 81 61 49 42 36 34 28 23 18 17 14 9 5 1 358 356 354 351
196 200 194 192 184 180 178 176 175 169 161 160 154 154 160 158 158 151 148 137 128 123 105 90 77 61 48 38 37 35 31 26 20 18 14 10 5 1 358 356 355 353 351
201 201 197 193 190 192 190 185 176 171 161 157 140 135 147 165 169 173 173 167 160 147 132 111 81 54 36 27 26 25 29 23 18 16 12 7 2 359 357 355 353 352 350
205 205 200 193 194 194 191 188 186 171 170 167 163 137 137 203 207 200 199 198 193 181 166 159 84 40 25 17 15 11 13 19 17 14 10 5 2 359 356 353 353 351 350
209 212 207 207 207 205 205 200 198 194 179 186 178 163 122 220 182 213 213 213 208 203 195 199 216 357 9 8 5 6 5 14 14 12 7 5 0 358 356 354 353 352 351
212 211 209 216 224 218 214 212 209 210 203 198 201 219 219 161 174 221 216 217 216 215 214 216 231 270 334 354 359 359 359 9 13 8 7 3 359 358 357 356 355 354 353
216 216 217 224 225 225 223 224 218 215 215 217 214 213 226 217 214 145 203 198 210 216 218 222 230 258 316 344 350 352 357 7 8 6 5 1 360 358 358 357 356 355 354
218 220 217 230 233 230 230 231 229 229 229 230 232 230 221 203 212 189 145 198 204 206 212 216 227 250 292 327 339 348 352 357 3 3 3 2 360 2 358 358 356 357 356
220 219 219 230 232 235 236 234 234 235 234 235 236 237 237 236 235 222 199 163 166 193 202 216 224 239 267 308 329 341 350 350 357 4 5 1 0 0 358 358 356 357 357
224 225 226 232 234 238 237 237 239 241 242 240 241 242 241 240 239 238 222 174 143 192 204 210 216 229 254 298 323 336 343 343 348 3 3 359 0 0 355 355 356 352 354
234 233 231 232 232 235 239 238 239 241 243 244 244 240 241 242 239 237 234 226 199 189 232 214 203 216 235 273 303 327 334 336 340 357 359 356 0 357 355 355 352 351 352
241 238 235 234 235 235 238 239 240 242 242 245 245 241 241 240 237 234 232 230 228 223 212 202 205 202 217 259 300 322 332 331 335 355 358 355 355 356 356 354 351 353 354
247 243 240 239 237 236 237 238 240 241 241 243 243 242 240 238 236 232 228 226 226 220 184 197 196 198 214 246 288 315 328 330 338 342 352 355 356 354 357 353 354 356 350
246 247 242 241 240 239 238 238 238 239 240 240 242 240 240 236 233 231 228 225 224 219 209 182 192 199 219 247 283 309 328 340 338 338 346 337 348 351 353 351 357 356 357
245 246 244 242 242 243 241 240 241 241 241 244 245 242 241 234 233 230 228 224 222 218 212 194 181 203 220 239 272 298 331 339 329 314 344 329 341 346 347 353 2 353 354
246 245 244 245 244 245 244 242 241 242 243 245 247 246 242 237 236 233 228 225 220 212 206 193 183 187 208 230 272 300 314 326 327 285 350 314 344 352 331 353 9 359 352
246 249 249 247 246 244 245 244 243 242 243 245 246 247 244 243 242 239 231 222 215 211 201 193 186 182 190 220 245 276 302 319 316 283 332 331 345 349 340 341 14 356 356
249 249 246 247 246 245 247 248 247 246 244 244 247 248 245 242 239 235 233 231 229 213 203 194 187 187 201 233 240 248 283 328 323 298 329 339 343 350 343 318 2 353 351
246 248 246 244 241 246 250 251 250 247 245 246 246 248 244 240 235 226 222 219 218 217 219 202 190 211 221 228 228 223 238 270 284 319 330 320 335 344 347 323 316 355 342
268 263 250 246 247 247 250 251 252 247 241 247 248 248 244 239 229 222 212 201 198 197 198 201 220 218 222 216 213 220 243 272 289 288 308 275 331 344 350 321 267 345 341
280 271 266 266 251 248 249 251 248 238 233 242 245 245 240 236 224 205 199 200 198 191 197 212 218 203 199 198 209 212 232 248 279 263 286 300 338 345 343 296 351 345 330
301 292 280 269 265 263 251 249 244 230 227 231 236 237 237 233 206 202 199 196 188 196 198 199 180 182 185 192 206 226 231 220 238 274 211 322 338 360 328 313 316 337 323